Location: Ladrillo (historical)
(32.8195°N, 117.2231°W)
Time: 00:10:12
(UTC+00:00)

Courier 1B - Pass Details

Date: 10 March 2021
Orbit: 963 x 1209 km, 28.3° (Epoch: 15 April)

Event Time Altitude Azimuth Distance (km) Brightness Sun altitude
Rises 17:10:25 0° 271° (W) 3,653 10.1 35.8°
Reaches altitude 10° 17:13:16 10° 263° (W) 2,692 9.5 36.3°
Maximum altitude 17:19:07 37° 198° (SSW) 1,450 9.0 37.3°
Drops below altitude 10° 17:25:01 10° 133° (SE) 2,708 11.1 38.3°
Sets 17:27:53 0° 125° (SE) 3,677 11.4 38.8°
